Location: Overspoor
(51.4747°N, 5.6641°E)
Time: 12:59:50
(UTC+02:00)

YUBILEINY - Pass Details

Date: 03 July 2022
Orbit: 1478 x 1509 km, 82.5° (Epoch: 08 August)

Event Time Altitude Azimuth Distance (km) Brightness Sun altitude
Rises 04:13:23 0° 348° (NNW) 4,657 ? -8.4°
Reaches altitude 10° 04:16:39 10° 357° (N) 3,669 ? -8.2°
Maximum altitude 04:24:42 37° 63° (ENE) 2,172 ? -7.4°
Drops below altitude 10° 04:32:38 10° 128° (SE) 3,632 ? -6.6°
Sets 04:35:49 0° 137° (SE) 4,604 ? -6.3°
